Regional Weather Roundup
Issued by NWS

Home | Current Version | Previous Version | Text Only | Print | Product List | Glossary Off
Versions: 1 2 3 4 5 6 7 8 9 10 11 12 13 14 15 16 17 18 19 20 21 22 23 24 25 26 27 28 29 30 31 32 33 34 35 36 37 38 39 40 41 42 43 44 45 46 47 48 49 50

000
ASUS43 KIND 300459
RWRIN

WEATHER ROUNDUP FOR INDIANA
NATIONAL WEATHER SERVICE INDIANAPOLIS IN
1200 AM EST FRI JAN 30 2015

NOTE: "FAIR" INDICATES FEW OR NO CLOUDS BELOW 12,000 FEET WITH NO
SIGNIFICANT WEATHER AND/OR OBSTRUCTIONS TO VISIBILITY.

* - STATION DOES NOT REPORT WEATHER SUCH AS PRECIPITATION OR FOG.

+ - STATION NOT QUALITY CONTROLLED BY THE NATIONAL WEATHER SERVICE.
    USE DATA WITH CAUTION...ESPECIALLY DEWPOINT AND RELATIVE
    HUMIDITY OBSERVATIONS.

INZ001>003-010>013-019-020-300600-
NORTHWEST INDIANA

CITY           SKY/WX    TMP DP  RH WIND       PRES   REMARKS
VALPARAISO     NOT AVBL

$$

LMZ046-743>745-300600-
SOUTHERN LAKE MICHIGAN

STATION/POSITION TIME  TEMP WIND        PRES
                       AIR  DIR/SP/G
                 (UTC) (F)  (DEG/KT/KT) (MB)
MICHIGAN CITY    0400   34  330/ 22/ 25   N/A

$$

INZ004-005-014>016-021>024-300600-
NORTH CENTRAL INDIANA

CITY           SKY/WX    TMP DP  RH WIND       PRES   REMARKS
GOSHEN         FLURRIES  32  25  75 N25G31    30.17R WCI  19
SOUTH BEND     NOT AVBL

$$

INZ006>009-017-018-025>027-300600-
NORTHEAST INDIANA

CITY           SKY/WX    TMP DP  RH WIND       PRES   REMARKS
ANGOLA *+      CLOUDY    30  27  86 NW12      30.12R WCI  21
FORT WAYNE     FLURRIES  33  27  78 W12       30.15R WCI  24

$$

INZ028-029-035-036-043>045-051>053-300600-
WEST CENTRAL INDIANA

CITY           SKY/WX    TMP DP  RH WIND       PRES   REMARKS
GREENCASTLE +  CLOUDY    34  25  69 NW8G18    30.26R WCI  27
LAFAYETTE      CLOUDY    33  26  75 NW13      30.25R WCI  24
TERRE HAUTE    CLOUDY    35  27  72 NW14      30.29S WCI  26

$$

INZ030>032-037>040-046>048-054>057-064-065-300600-
CENTRAL INDIANA

CITY           SKY/WX    TMP DP  RH WIND       PRES   REMARKS
INDIANAPOLIS   CLOUDY    31  25  78 NW13G22   30.24R WCI  21
-EAGLE CREEK   CLOUDY    33  26  75 NW14G23   30.23R WCI  23
KOKOMO *+      CLOUDY    34  25  69 NW16G22   30.20R WCI  23
MT COMFORT *+  CLOUDY    32  25  74 NW9       30.22R WCI  24
SHELBYVILLE    CLOUDY    35  28  75 NW13      30.22R WCI  26

$$

INZ033-034-041-042-049-050-058-059-300600-
EAST CENTRAL INDIANA

CITY           SKY/WX    TMP DP  RH WIND       PRES   REMARKS
MUNCIE         CLOUDY    32  28  85 NW12      30.18R WCI  23

$$

INZ060-061-067>069-081>083-085>088-300600-
SOUTHWEST INDIANA

CITY           SKY/WX    TMP DP  RH WIND       PRES   REMARKS
EVANSVILLE     CLOUDY    37  31  78 VRB7      30.36R
HUNTINGBURG *+ CLOUDY    36  30  80 NW12      30.32R

$$

INZ062-063-066-070>080-084-089>092-300600-
SOUTH CENTRAL AND SOUTHEAST INDIANA

CITY           SKY/WX    TMP DP  RH WIND       PRES   REMARKS
BLOOMINGTON    LGT RAIN  34  30  85 W9        30.26R WCI  27
SEYMOUR +      CLOUDY    36  28  75 NW8       30.26R

$$




USA.gov is the U.S. government's official web portal to all federal, state and local government web resources and services.